Home   Weather   New Bedford   Past weeks

Flag for USA Past Weather in New Bedford, Massachusetts, USA — Yesterday and Last 2 Weeks

Now
65 °F

Sunny.


Feels Like: 65 °F
Forecast: 42 / 66 °F
Wind: 6 mph from South

Location: New Bedford Regional Airport

Current Time: Sep 26, 2016 at 1:30:53 PM

Latest Report: Sep 26, 2016 at 12:53 PM


Visibility: 10 mi

Pressure: 30.16 "Hg

Humidity: 37%

Dew Point: 38 °F

Location of New BedfordLocation

Past Weather in New Bedford — Graph

°F

New Bedford Temperature Yesterday

Maximum temperature yesterday: 68 °F (at 2:53 PM)
Minimum temperature yesterday: 42 °F (at 11:53 PM)
Average temperature yesterday: 54 °F

High & Low Weather Summary for the Past Weeks

 TemperatureHumidityPressure
High84 °F (Sep 14, 12:53 PM)97% (Sep 13, 6:53 AM)30.36 "Hg (Sep 13, 6:53 AM)
Low37 °F (Sep 26, 5:53 AM)28% (Sep 25, 3:53 PM)29.91 "Hg (Sep 11, 11:53 AM)
Average65 °F74%30.12 "Hg
* Reported Sep 11 11:53 AM — Sep 26 11:53 AM, New Bedford, Weather by CustomWeather, © 2016

Note: Actual official high and low records may vary slightly from our data, if they occured in-between our weather recording intervals... More about our weather records

Advertising

New Bedford Weather History for the Previous 24 Hours

Scroll right to see more
 ConditionsComfort  
Time TempWeatherWind HumidityBarometerVisibility
11:53 AM
Mon, Sep 26
64 °FSunny.No wind38%30.18 "Hg10 mi
10:53 AM63 °FSunny.7 mph38%30.20 "Hg10 mi
9:53 AM59 °FSunny.3 mph48%30.21 "Hg10 mi
8:53 AM54 °FSunny.3 mph62%30.22 "Hg10 mi
7:53 AM45 °FSunny.No wind86%30.22 "Hg10 mi
6:53 AM38 °FSunny.No wind90%30.20 "Hg9 mi
5:53 AM37 °FFog.No wind89%30.19 "Hg4 mi
4:53 AM39 °FClear.No wind86%30.17 "Hg10 mi
3:53 AM41 °FClear.No wind82%30.18 "Hg10 mi
2:53 AM39 °FClear.No wind89%30.19 "Hg10 mi
1:53 AM42 °FClear.No wind85%30.19 "Hg10 mi
12:53 AM40 °FClear.No wind89%30.19 "Hg10 mi
11:53 PM
Sun, Sep 25
42 °FClear.No wind85%30.18 "Hg10 mi
10:53 PM44 °FClear.No wind82%30.17 "Hg10 mi
9:53 PM43 °FClear.5 mph86%30.17 "Hg10 mi
8:53 PM46 °FClear.No wind83%30.15 "Hg10 mi
7:53 PM50 °FClear.3 mph77%30.13 "Hg10 mi
6:53 PM55 °FClear.No wind55%30.10 "Hg10 mi
5:53 PM64 °FSunny.5 mph33%30.07 "Hg10 mi
4:53 PM66 °FSunny.6 mph29%30.06 "Hg10 mi
3:53 PM68 °FSunny.8 mph28%30.06 "Hg10 mi
2:53 PM68 °FPassing clouds.7 mph31%30.07 "Hg10 mi
1:53 PM65 °FSunny.10 mph33%30.08 "Hg10 mi
Weather by CustomWeather, © 2016

See weather overviewHow to use our weather pages